Home > Weather > Luhansk > Past weeks

Flag for Ukraine Past Weather in Luhansk, Ukraine — Yesterday and Last 2 Weeks

Now
66 °F

Clear.


Feels Like: 66 °F
Forecast: 62 / 90 °F
Wind: 6 mph from Northeast

Location: Rostov-Na-Donu

Current Time: Jul 28, 2016 at 3:57:01 AM

Latest Report: Jul 28, 2016 at 3:30 AM


Visibility: 5 mi

Pressure: 29.98 "Hg

Humidity: 68%

Dew Point: 55 °F

Location of LuhanskLocation

Past Weather in Luhansk — Graph

°F

Luhansk Temperature Yesterday

Maximum temperature yesterday: 86 °F (at 3:00 PM)
Minimum temperature yesterday: 66 °F (at 4:00 AM)
Average temperature yesterday: 77 °F

High & Low Weather Summary for the Past Weeks

 TemperatureHumidityPressure
High100 °F (Jul 17, 1:00 PM)100% (Jul 23, 11:30 PM)30.07 "Hg (Jul 23, 11:30 PM)
Low61 °F (Jul 23, 10:30 PM)21% (Jul 17, 2:30 PM)29.53 "Hg (Jul 19, 2:30 AM)
Average77 °F58%29.83 "Hg
* Reported Jul 13 2:00 AM — Jul 28 2:00 AM, Luhansk, Weather by CustomWeather, © 2016

Note: Actual official high and low records may vary slightly from our data, if they occured in-between our weather recording intervals... More about our weather records

Advertising

Luhansk Weather History for the Previous 24 Hours

Scroll right to see more
 ConditionsComfort  
Time TempWeatherWind HumidityBarometerVisibility
2:00 AM
Thu, Jul 28
66 °FClear.3 mph64%29.95 "Hg5 mi
1:30 AM66 °FClear.3 mph68%29.95 "Hg5 mi
1:00 AM66 °FClear.6 mph64%29.95 "Hg5 mi
12:30 AM72 °FClear.6 mph53%29.95 "Hg5 mi
12:00 AM70 °FClear.6 mph60%29.95 "Hg5 mi
11:00 PM
Wed, Jul 27
73 °FClear.1 mph50%29.95 "Hg5 mi
10:30 PM72 °FClear.3 mph53%29.95 "Hg5 mi
10:00 PM75 °FClear.3 mph44%29.95 "Hg5 mi
9:30 PM75 °FClear.6 mph47%29.95 "Hg5 mi
9:00 PM79 °FClear.8 mph37%29.95 "Hg5 mi
8:00 PM79 °FClear.6 mph42%29.95 "Hg10 mi
7:30 PM79 °FSunny.6 mph45%29.95 "Hg10 mi
7:00 PM81 °FPassing clouds.3 mph48%29.95 "HgN/A
6:30 PM82 °FSunny.6 mph45%29.95 "Hg10 mi
6:00 PM84 °FSunny.3 mph43%29.95 "Hg10 mi
5:30 PM84 °FPassing clouds.8 mph43%29.95 "HgN/A
5:00 PM86 °FPassing clouds.6 mph35%29.95 "HgN/A
4:30 PM86 °FPassing clouds.6 mph38%29.95 "HgN/A
4:00 PM86 °FPassing clouds.10 mph38%29.95 "HgN/A
3:30 PM86 °FPassing clouds.8 mph38%29.95 "HgN/A
3:00 PM86 °FPassing clouds.10 mph40%29.95 "HgN/A
2:30 PM84 °FPassing clouds.10 mph43%29.95 "HgN/A
2:00 PM84 °FPassing clouds.10 mph40%29.95 "HgN/A
1:30 PM84 °FPassing clouds.13 mph43%29.95 "Hg5 mi
1:00 PM84 °FPassing clouds.10 mph45%29.95 "Hg5 mi
12:30 PM84 °FPassing clouds.13 mph45%29.98 "Hg5 mi
12:00 PM84 °FPassing clouds.10 mph48%29.98 "Hg5 mi
11:00 AM82 °FClear.10 mph55%29.98 "Hg5 mi
10:30 AM81 °FClear.10 mph54%29.98 "Hg5 mi
10:00 AM81 °FClear.8 mph58%29.98 "Hg5 mi
9:30 AM79 °FClear.10 mph58%29.98 "Hg4 mi
9:00 AM77 °FClear.8 mph61%29.98 "Hg5 mi
8:30 AM75 °FClear.8 mph65%29.98 "Hg5 mi
8:00 AM75 °FPassing clouds.8 mph61%29.98 "HgN/A
7:30 AM73 °FPassing clouds.6 mph65%29.98 "HgN/A
7:00 AM72 °FSunny.6 mph69%29.98 "Hg10 mi
6:30 AM70 °FSunny.6 mph73%29.98 "Hg10 mi
6:00 AM68 °FSunny.6 mph73%29.98 "Hg10 mi
5:30 AM68 °FSunny.3 mph73%29.98 "Hg10 mi
5:00 AM66 °FSunny.3 mph78%29.95 "Hg10 mi
4:30 AM66 °FClear.6 mph78%29.95 "Hg5 mi
4:00 AM66 °FClear.3 mph78%29.95 "Hg5 mi
3:30 AM68 °FClear.3 mph73%29.95 "Hg5 mi
3:00 AM70 °FClear.8 mph69%29.95 "Hg5 mi
Weather by CustomWeather, © 2016

See weather overviewHow to use our weather pages